Tracking 28790 objects as of 19-Apr-2024
HD Live streaming from Space Station
objects crossing your sky now

COSMOS 2251 DEB

Track COSMOS 2251 DEB now!
10-day predictions


NORAD ID: 36529
Int'l Code: 1993-036BCP
Perigee: 702.1 km
Apogee: 900.9 km
Inclination: 74.0 °
Period: 100.8 minutes
Semi major axis: 7172 km
RCS: 0.003 m2 (small)
Launch date: June 16, 1993
Source: Commonwealth of Independent States (former USSR) (CIS)
Launch site: PLESETSK MISSILE AND SPACE COMPLEX (PKMTR)

Note: This is SATELLITE DEBRIS
Your satellite tracking list
Your tracking list is empty




NASA's NSSDC Master Catalog

Two Line Element Set (TLE):
1 36529U 93036BCP 24096.61427292  .00013538  00000-0  48066-2 0  9996
2 36529  74.0406  66.3701 0138575 289.6631 191.1877 14.29201484746854
Source of the keplerian elements: AFSPC